Orbital Elements at Epoch 2459200.5 (2020-Dec-17.0) TDB
Reference: JPL 133 (heliocentric ecliptic J2000)
Element | Value | Uncertainty (1-sigma) | Units |
e | .4529125575382074 | 6.0504e-08 | |
a | 2.238044049474917 | 1.2411e-08 | au |
q | 1.224405795144066 | 1.3826e-07 | au |
i | 3.981977058800758 | 5.6511e-06 | deg |
node | 304.6674802935079 | 7.5262e-05 | deg |
peri | 56.16821684684399 | 7.5457e-05 | deg |
M | 213.9542126234827 | 9.1341e-06 | deg |
tp | 2459696.621337379784 (2022-Apr-27.12133738) | 3.3447e-05 | TDB |
period | 1222.929361161702 3.35 | 1.0173e-05 2.785e-08 | d yr |
n | .2943751384446471 | 2.4487e-09 | deg/d |
Q | 3.251682303805768 | 1.8032e-08 | au |
|
| | Orbit Determination Parameters
Additional Information
|